{"data":{"norad_id":55926,"epoch":"2026-05-25T02:32:41.436096Z","epoch_age_seconds":76565,"freshness":"FRESH","line1":"1 55926U 23037N   26145.10603514 -.00000059  00000+0  28441-5 0  9998","line2":"2 55926  69.9996  91.9064 0003076 269.1708  90.9099 14.98330966175429","mean_motion":14.98330966,"eccentricity":0.0003076,"inclination_deg":69.9996,"raan_deg":91.9064,"arg_perigee_deg":269.1708,"mean_anomaly_deg":90.9099,"bstar":2.8441e-6,"rev_number":17542,"period_min":96.106937163842,"perigee_km":569.91502525634,"apogee_km":574.19078208508,"semimajor_km":6950.1899036707,"source":"CELESTRAK","updated_at":"2026-05-25T13:38:17.912497Z"}}